Regional Weather Roundup
Issued by NWS

Home | Current Version | Previous Version | Text Only | Print | Product List | Glossary Off
Versions: 1 2 3 4 5 6 7 8 9 10 11 12 13 14 15 16 17 18 19 20 21 22 23 24 25 26 27

000
ASUS45 KPSR 060310
RWRAZ

ARIZONA HOURLY REGIONAL WEATHER ROUNDUP
NATIONAL WEATHER SERVICE PHOENIX AZ
800 PM MST THU MAY 05 2016

NOTE: FAIR INDICATES FEW OR NO CLOUDS BELOW 12,000 FEET WITH NO
SIGNIFICANT WEATHER AND/OR OBSTRUCTIONS TO VISIBILITY.

AZZ001>003-036-060400-
NORTHWEST ARIZONA

CITY           SKY/WX    TMP DP  RH WIND       PRES   REMARKS
BULLHEAD CITY  CLOUDY    82  30  15 S16       29.63F
KINGMAN        MOCLDY    70  23  17 S16       29.76R
$$

AZZ004>008-015-016-018-060400-
NORTH CENTRAL ARIZONA

CITY           SKY/WX    TMP DP  RH WIND       PRES   REMARKS
GRAND CANYON   PTCLDY    61  14  16 S5        29.94F
WILLIAMS       CLEAR     59  18  20 SW21G28   30.02R
PRESCOTT       CLEAR     63  26  24 SW17G28   29.88R
FLAGSTAFF      PTCLDY    57  17  21 S8        29.97R
PAYSON         PTCLDY    68  19  15 CALM      29.91S
PAGE           MOCLDY    77  19  11 SW10G18   29.74F
$$

AZZ009>014-017-060400-
NORTHEAST ARIZONA

CITY           SKY/WX    TMP DP  RH WIND       PRES   REMARKS
WINSLOW        PTCLDY    67  21  17 SW8       29.86R
SAINT JOHNS    MOCLDY    69  30  23 S7        29.92S
WINDOW ROCK    CLOUDY    67  33  28 E8        30.01R
SHOW LOW       PTCLDY    61  16  17 S13       29.98S
$$

AZZ023-060400-
GREATER PHOENIX AREA

CITY           SKY/WX    TMP DP  RH WIND       PRES   REMARKS
PHOENIX        PTCLDY    84  34  16 W20       29.68R
BUCKEYE        CLEAR     77  30  18 SW16G24   29.70S
GLENDALE       PTCLDY    82  32  16 S20G31    29.70R
LUKE AFB       CLEAR     81  30  15 SW18      29.68R
DEER VALLEY    CLEAR     80  31  16 W18G33    29.70R
SCOTTSDALE     CLEAR     81  31  16 W10G20    29.73R
MESA-FALCON    CLEAR    N/A N/A N/A W12       29.69
MESA-GATEWAY   PTCLDY    82  36  18 MISG      29.71R
CHANDLER       CLEAR     84  36  17 SW17G30   29.70R
$$

AZZ027-028-060400-
SOUTHWEST MARICOPA COUNTY AND PINAL COUNTY

CITY           SKY/WX    TMP DP  RH WIND       PRES   REMARKS
CASA GRANDE    CLEAR     81  37  21 SW18G29   29.73R
GILA BEND      PTCLDY    80  23  12 S15       29.69S
$$

AZZ503-504-507>509-060400-
SOUTHEAST ARIZONA

CITY           SKY/WX    TMP DP  RH WIND       PRES   REMARKS
TUCSON         CLEAR     83  20   9 SW9       29.80R
DAVIS-MONTHAN  CLEAR     82  25  12 SW10      29.79R
RYAN FIELD     CLEAR     84  27  12 S9        29.78R
NOGALES        CLEAR     75  26  16 S12G20    29.89R
SIERRA VISTA   CLEAR     71  12  10 S9        29.95R
DOUGLAS        CLEAR     73   5   7 SW10      29.92R
SAFFORD        PTCLDY    80   7   6 E3        29.76S
$$

AZZ020-021-025-026-031-060400-
SOUTHWEST ARIZONA

CITY           SKY/WX    TMP DP  RH WIND       PRES   REMARKS
YUMA           PTCLDY    74  40  29 W17G24    29.70R BLWGDUST
$$

CAZ031-033-041-043-047-048-061-060400-
SOUTHERN CALIFORNIA

CITY           SKY/WX    TMP DP  RH WIND       PRES   REMARKS
DOWNTOWN L.A.  CLOUDY    63  48  58 VRB5      29.85F
L.A. AIRPORT   MOCLDY    62  52  69 W9        29.86S
SAN DIEGO      MOCLDY    65  49  56 W5        29.89R
BURBANK        CLOUDY    60  44  55 S8        29.85F
ONTARIO        MOCLDY    59  46  62 W13       29.85S
RIVERSIDE      CLOUDY    62  47  57 W13       29.85R
PALM SPRINGS   CLEAR     71  40  32 NW12G26   29.71S
EL CENTRO NAS  PTCLDY    70  42  36 W31G40    29.73R
IMPERIAL       CLEAR     70  43  37 W23G39    29.70R
BLYTHE         CLEAR     77  41  27 W22       29.66R
NEEDLES        CLOUDY    83  31  15 SW16      29.63S
$$

NVZ020-UTZ003-060400-
SOUTHERN NEVADA-UTAH

CITY           SKY/WX    TMP DP  RH WIND       PRES   REMARKS
LAS VEGAS      CLOUDY    79  25  13 S13       29.63R
SALT LAKE CITY CLOUDY    75  35  23 SW5       29.76R
$$

NMZ009-TXZ055-060400-
NEW MEXICO-WEST TEXAS

CITY           SKY/WX    TMP DP  RH WIND       PRES   REMARKS
ALBUQUERQUE    PTCLDY    68  24  19 SE7       30.01R
EL PASO        PTCLDY    83  30  14 SE16G25   29.91S
$$


........................KEY........................
SKY/WX - SKY CONDITION/WEATHER
TMP    - TEMPERATURE IN FAHRENHEIT
DP     - DEW POINT IN FAHRENHEIT
RH     - RELATIVE HUMIDITY IN PERCENT
WIND   - DIRECTION AND SPEED IN MILES PER HOUR (MPH)
VRB    - VARIABLE WIND DIRECTION
PRES   - MEAN SEA LEVEL PRESSURE IN INCHES OF MERCURY
         F - FALLING PRESSURE   R - RISING PRESSURE
         S - STEADY PRESSURE
VSB    - VISIBILITY IN MILES
HX     - HEAT INDEX IN FAHRENHEIT
WCI    - WIND CHILL INDEX IN FAHRENHEIT
TC     - TEMPERATURE IN CELSIUS WHICH IS ALSO KNOWN AS
         TEMPERATURE IN CENTIGRADE
AFB    - AIR FORCE BASE
         LUKE AFB IS LUKE AIR FORCE BASE
         DAVIS-MONTHAN IS DAVIS-MONTHAN AIR FORCE BASE
NAS    - NAVAL AIR STATION
         EL CENTRO NAS IS EL CENTRO NAVAL AIR STATION
N/A    - NOT AVAILABLE





USA.gov is the U.S. government's official web portal to all federal, state and local government web resources and services.